Sioux Falls, SD

5:51 AM CDT on October 16, 2019 (GMT -0500)
Foss

Weather History for KFSD - August, 2019

Change the Weather History Date:

Saturday, August 3, 2019

  Actual Average Record
Temperature  
Mean Temperature 74 °F 73 °F  
Max Temperature 81 °F 83 °F 105 °F (1930)
Min Temperature 67 °F 62 °F 39 °F (1894)
Degree Days  
Heating Degree Days 0 0  
Month to date heating degree days 0 0  
Since 1 June heating degree days 20 59  
Since 1 July heating degree days 0 8  
Cooling Degree Days 9 8  
Month to date cooling degree days 25 24  
Year to date cooling degree days 553 451  
Since 1 June cooling degree days 538 415  
Growing Degree Days 22 (Base 50)    
Moisture  
Dew Point 64 °F    
Average Humidity 75    
Maximum Humidity 93    
Minimum Humidity 56    
Precipitation  
Precipitation 0.09 in 0.11 in 1.89 in (2004)
Month to date precipitation 0.11 0.32  
Year to date precipitation 27.30 16.66  
Snow  
Snow 0.00 in 0.00 in 0.00 in ()
Month to date snowfall 0.0 0.0  
Since 1 June snowfall T 0.0  
Since 1 July snowfall T 0.0  
Snow Depth 0.00 in    
Sea Level Pressure  
Sea Level Pressure 30.06 in    
Wind  
Wind Speed 8 mph (SE)    
Max Wind Speed 15 mph    
Max Gust Speed 21 mph    
Visibility 10 miles    
Events Rain    
T = Trace of Precipitation, MM = Missing Value Source: NWS Daily Summary

Daily Weather History Graph

Daily Weather History Graph

Search for Another Location

Airport or City:

Astronomy

Aug. 03, 2019 Rise Set
Actual Time 6:18 AM CDT 8:47 PM CDT
Civil Twilight 5:45 AM CDT 9:19 PM CDT
Nautical Twilight 5:05 AM CDT 9:59 PM CDT
Astronomical Twilight 4:19 AM CDT 10:45 PM CDT
Moon 9:16 AM CDT (8/3) 10:48 PM CDT (8/3)
Length of Visible Light 15h 33m
Length of Day
14h 29m
Waxing Crescent, 10% of the Moon is Illuminated
Aug 3
Waxing Crescent
Aug 7
First Quarter
Aug 15
Full
Aug 23
Last Quarter
Aug 30
New

Hourly Weather History & Observations

Time (CDT) Temp. Dew Point Humidity Pressure Visibility Wind Dir Wind Speed Gust Speed Precip Events Conditions
12:56 AM 72.0 °F 64.0 °F 76% 30.09 in 10.0 mi SE 11.5 mph - N/A   Overcast
1:56 AM 72.0 °F 61.0 °F 68% 30.08 in 10.0 mi SSE 12.7 mph - N/A   Overcast
2:56 AM 71.1 °F 61.0 °F 70% 30.06 in 10.0 mi SSE 9.2 mph - N/A   Overcast
3:56 AM 70.0 °F 62.1 °F 76% 30.06 in 10.0 mi SSE 6.9 mph - N/A   Overcast
4:56 AM 69.1 °F 62.1 °F 78% 30.06 in 10.0 mi East 4.6 mph - N/A   Mostly Cloudy
5:56 AM 68.0 °F 63.0 °F 84% 30.06 in 10.0 mi East 3.5 mph - N/A   Mostly Cloudy
6:56 AM 68.0 °F 64.0 °F 87% 30.10 in 10.0 mi Calm Calm - 0.00 in Rain Light Rain
7:56 AM 66.9 °F 64.9 °F 93% 30.09 in 4.0 mi ENE 6.9 mph - 0.07 in Rain Rain
8:56 AM 70.0 °F 64.9 °F 84% 30.10 in 10.0 mi Calm Calm - 0.02 in   Overcast
9:56 AM 72.0 °F 64.9 °F 78% 30.09 in 10.0 mi East 6.9 mph - N/A   Mostly Cloudy
10:56 AM 73.0 °F 66.0 °F 79% 30.08 in 10.0 mi East 9.2 mph - N/A   Mostly Cloudy
11:56 AM 77.0 °F 66.0 °F 69% 30.07 in 10.0 mi SSE 6.9 mph - N/A   Mostly Cloudy
12:56 PM 77.0 °F 64.0 °F 64% 30.07 in 10.0 mi SSE 12.7 mph - N/A   Mostly Cloudy
1:56 PM 77.0 °F 64.0 °F 64% 30.06 in 10.0 mi SSE 13.8 mph - N/A   Mostly Cloudy
2:56 PM 77.0 °F 60.1 °F 56% 30.07 in 10.0 mi South 12.7 mph - N/A   Overcast
3:56 PM 78.1 °F 64.9 °F 64% 30.04 in 10.0 mi SE 11.5 mph - 0.00 in   Mostly Cloudy
4:56 PM 78.1 °F 64.0 °F 62% 30.04 in 10.0 mi SE 13.8 mph - N/A   Mostly Cloudy
5:56 PM 79.0 °F 64.9 °F 62% 30.02 in 10.0 mi SSE 11.5 mph - N/A   Mostly Cloudy
6:56 PM 79.0 °F 66.0 °F 64% 30.01 in 10.0 mi SE 9.2 mph - N/A   Mostly Cloudy
7:56 PM 78.1 °F 64.9 °F 64% 30.01 in 10.0 mi SE 5.8 mph - N/A   Mostly Cloudy
8:56 PM 75.9 °F 64.9 °F 69% 30.02 in 10.0 mi SE 5.8 mph - N/A   Mostly Cloudy
9:56 PM 75.9 °F 66.0 °F 71% 30.04 in 10.0 mi SSE 5.8 mph - N/A   Mostly Cloudy
10:56 PM 75.9 °F 64.9 °F 69% 30.04 in 10.0 mi SE 8.1 mph - N/A   Mostly Cloudy
11:56 PM 73.9 °F 66.0 °F 76% 30.05 in 10.0 mi SE 5.8 mph - N/A   Overcast